Content
SEND FEEDBACK

Daily
Averages
Monthly
Summary
United States of America

WESTERNPORT, MARYLAND


Home > North America > United States > Maryland
Elevation: 922 feet     Latitude: 39 29N     Longitude: 079 03W

WEATHER
 
SELECT A DAY
Number of Records: 194,716;   Date Range: 5/31/06 - 8/18/14
 
SHARE

PRINT THIS DATA

[ ← Previous Day ]
WEATHER ALMANAC - JANUARY 3, 2013
[ Next Day → ]
[ °C ]   °F
Weather ElementAverageHighLow
Temperature21.6 °F26.6 °F (1:30 pm)15.8 °F (12:25 am)
Dewpoint18.2 °F21.2 °F (2:35 pm)14 °F (1:50 am)
Humidity87.1 %100 % (12:25 am)74 % (12:25 pm)
Barometer30.05 in30.08 in (9:15 am)30.01 in (1:30 pm)
Wind Speed9.2 mph17.3 mph (7:50 pm)
Wind Gust28.8 mph (8:15 pm)
Weather ElementAverage
Visibility10 mi
Wind DirectionWSW (251.2 °)

Weather ElementTotal
Precipitation---
Heating Degree Days43.8 (Base 65)
Averaged from 58 records on January 3, 2013
WEATHER CONDITIONS BREAKOUT
WIND DIRECTION BREAKOUT
WEATHER BY HOUR - JANUARY 3, 2013
[ °C ]   °F
Local TimeTemperatureDewpointHumidityBarometerVisibilityWind DirectionWind SpeedGust SpeedPrecipitationEventsConditions
12:25 AM15.8 °F15.8 °F100 %30.05 in10.0 miCalmClear
1:05 AM15.8 °F15.8 °F100 %30.05 in10.0 miWSW (250°)3.5 mphClear
1:25 AM15.8 °F15.8 °F100 %30.04 in10.0 miWSW (240°)4.6 mphClear
1:50 AM15.8 °F14.0 °F93 %30.05 in10.0 miSW (220°)3.5 mphClear
2:50 AM17.6 °F15.8 °F93 %30.06 in10.0 miWSW (240°)4.6 mphClear
3:15 AM15.8 °F15.8 °F100 %30.05 in10.0 miWSW (240°)4.6 mphClear
3:55 AM17.6 °F15.8 °F93 %30.04 in10.0 miWSW (240°)3.5 mphClear
4:15 AM15.8 °F15.8 °F100 %30.05 in10.0 miWSW (240°)3.5 mphClear
4:40 AM15.8 °F15.8 °F100 %30.04 in10.0 miWSW (250°)4.6 mphClear
5:00 AM15.8 °F15.8 °F100 %30.04 in10.0 miWSW (240°)4.6 mphClear
5:20 AM17.6 °F15.8 °F93 %30.05 in10.0 miWSW (250°)5.8 mphClear
5:40 AM15.8 °F15.8 °F100 %30.04 in10.0 miWSW (240°)6.9 mphClear
6:05 AM17.6 °F15.8 °F93 %30.05 in10.0 miWSW (240°)5.8 mphClear
6:45 AM17.6 °F15.8 °F93 %30.04 in10.0 miWSW (240°)5.8 mphClear
7:05 AM17.6 °F15.8 °F93 %30.05 in10.0 miWSW (250°)6.9 mphClear
7:30 AM17.6 °F15.8 °F93 %30.05 in10.0 miWSW (250°)6.9 mphClear
7:50 AM17.6 °F15.8 °F93 %30.06 in10.0 miWSW (250°)8.1 mphClear
8:10 AM17.6 °F17.6 °F100 %30.06 in10.0 miWSW (250°)8.1 mphClear
8:30 AM17.6 °F17.6 °F100 %30.06 in10.0 miWSW (250°)6.9 mphClear
8:55 AM19.4 °F17.6 °F93 %30.07 in10.0 miWSW (250°)6.9 mphClear
9:15 AM19.4 °F17.6 °F93 %30.08 in10.0 miWSW (250°)8.1 mphClear
9:35 AM19.4 °F17.6 °F93 %30.08 in10.0 miWSW (250°)8.1 mphClear
9:55 AM19.4 °F17.6 °F93 %30.08 in10.0 miWest (260°)6.9 mphClear
10:20 AM21.2 °F17.6 °F86 %30.08 in10.0 miWest (260°)9.2 mphClear
10:40 AM21.2 °F17.6 °F86 %30.08 in10.0 miWSW (250°)9.2 mphClear
11:00 AM23.0 °F17.6 °F80 %30.08 in10.0 miWest (260°)6.9 mph17.3 mphClear
11:20 AM23.0 °F17.6 °F80 %30.07 in10.0 miWSW (250°)10.4 mph17.3 mphClear
11:45 AM23.0 °F17.6 °F80 %30.04 in10.0 miWSW (250°)11.5 mph21.9 mphClear
12:25 PM24.8 °F17.6 °F74 %30.03 in10.0 miWSW (250°)10.4 mph19.6 mphClear
12:45 PM24.8 °F19.4 °F80 %30.02 in10.0 miWest (260°)10.4 mph17.3 mphClear
1:30 PM26.6 °F19.4 °F74 %30.01 in10.0 miWest (260°)9.2 mph18.4 mphClear
1:50 PM26.6 °F19.4 °F74 %30.01 in10.0 miWest (260°)8.1 mph16.1 mphClear
2:10 PM26.6 °F19.4 °F74 %30.01 in10.0 miWSW (250°)9.2 mph17.3 mphClear
2:35 PM26.6 °F21.2 °F80 %30.01 in10.0 miWSW (250°)10.4 mph16.1 mphClear
2:55 PM26.6 °F19.4 °F74 %30.02 in10.0 miWest (260°)11.5 mph19.6 mphClear
3:15 PM26.6 °F21.2 °F80 %30.02 in10.0 miWest (260°)13.8 mphClear
3:35 PM26.6 °F19.4 °F74 %30.03 in10.0 miWest (260°)10.4 mph16.1 mphClear
4:00 PM26.6 °F21.2 °F80 %30.04 in10.0 miWest (260°)9.2 mphClear
4:20 PM26.6 °F19.4 °F74 %30.04 in10.0 miWest (260°)8.1 mph16.1 mphClear
4:40 PM26.6 °F19.4 °F74 %30.04 in10.0 miWSW (250°)9.2 mphClear
5:00 PM24.8 °F19.4 °F80 %30.04 in10.0 miWSW (250°)12.7 mphClear
5:25 PM24.8 °F19.4 °F80 %30.05 in10.0 miWSW (250°)13.8 mph19.6 mphClear
6:05 PM24.8 °F19.4 °F80 %30.04 in10.0 miWest (260°)16.1 mph24.2 mphClear
6:25 PM24.8 °F19.4 °F80 %30.04 in10.0 miWest (270°)15.0 mph24.2 mphClear
6:50 PM23.0 °F19.4 °F86 %30.04 in10.0 miWest (260°)15.0 mph24.2 mphClear
7:10 PM24.8 °F19.4 °F80 %30.04 in10.0 miWest (260°)15.0 mph26.5 mphClear
7:30 PM24.8 °F19.4 °F80 %30.05 in10.0 miWest (270°)15.0 mph26.5 mphScattered Clouds
7:50 PM24.8 °F19.4 °F80 %30.05 in10.0 miWest (270°)17.3 mph27.6 mphOvercast
8:15 PM24.8 °F19.4 °F80 %30.05 in10.0 miWest (270°)15.0 mph28.8 mphOvercast
8:35 PM24.8 °F21.2 °F86 %30.05 in10.0 miWest (270°)13.8 mph25.3 mphOvercast
8:55 PM24.8 °F21.2 °F86 %30.06 in10.0 miWest (270°)9.2 mph25.3 mphOvercast
9:15 PM23.0 °F21.2 °F93 %30.07 in10.0 miWest (280°)12.7 mph18.4 mphOvercast
9:40 PM23.0 °F21.2 °F93 %30.07 in10.0 miWest (280°)10.4 mph20.7 mphOvercast
10:00 PM23.0 °F21.2 °F93 %30.07 in10.0 miWest (270°)9.2 mph20.7 mphOvercast
10:20 PM23.0 °F19.4 °F86 %30.08 in10.0 miWest (280°)12.7 mph20.7 mphOvercast
10:40 PM23.0 °F19.4 °F86 %30.07 in10.0 miWest (270°)11.5 mph21.9 mphOvercast
11:25 PM23.0 °F19.4 °F86 %30.07 in10.0 miWest (270°)10.4 mph19.6 mphOvercast
11:45 PM23.0 °F19.4 °F86 %30.07 in10.0 miWest (280°)11.5 mph20.7 mphOvercast
Hourly data recorded from K2G4, located miles away from Westernport, Maryland







STORIES FROM OUR PARTNERS